User: anonymous   Login
Location: Brede
(50.9167°N, 0.6000°E)
Time: 08:48:37
(UTC+00:00)
Language:

Meteor 2-5 Rocket - Orbit

View from above orbital plane
View from above orbital plane
View from above satellite
View from above satellite

Ground track
Ground track

The orbit data is extracted from the following two-line orbital elements,

1 11608U 79095B   20293.78004113 -.00000061 +00000-0 -43818-4 0  9993
2 11608 081.2101 106.4888 0054115 334.8526 025.0008 14.06161497101616
Epoch (UTC): 19 October 2020 18:43:15
Eccentricity: 0.0054115
inclination: 81.2101°
perigee height: 833 km
apogee height: 912 km
right ascension of ascending node: 106.4888°
argument of perigee: 334.8526°
revolutions per day: 14.06161497
mean anomaly at epoch: 25.0008°
orbit number at epoch: 10161

The dashed part of the orbit path shows where the satellite is in the earth's shadow,  

DLR